[[{"header":{"parameterUnit":"m.s-1","parameterCategory":1,"la1":30.2991,"la2":30.254,"lo1":-89.0895,"lo2":-89.0444,"dy":0.0017,"dx":0.0017,"nx":28,"ny":28,"refTime":"2025-06-09T21:00:00:Z","depth":0,"parameterNumber":2,"parameterNumberName":"U-component_of_WINDS"},"data":[0,0,0,0,0,0,0,0,0,0,0,0,0,0,0,0,0,0,0,0,0,0,0,0,0,0,0,0,0,0,0,0,0,0,0,0,0,0,0,0,0,0,0,0,0,0,0,0,0,0,0,0,0,0,0,0,0,0,2.3475,2.3478,0,2.3685,2.3687,2.3689,2.3701,2.3698,2.3696,2.3693,2.3915,2.3923,2.3931,0,0,0,0,0,0,0,0,0,0,0,0,0,2.3093,2.31,2.3475,2.3478,2.348,2.3684,2.3687,2.369,2.3701,2.3698,2.3695,2.3692,2.3913,2.3922,2.3932,0,0,0,0,0,0,0,0,0,0,0,0,0,2.3276,2.3102,2.3475,2.351,2.3516,2.3684,2.3687,2.3691,2.3702,2.3698,2.3694,2.3691,2.3909,2.3921,2.3933,2.4082,0,0,2.3971,2.3976,0,0,0,0,0,0,0,0,2.3266,2.329,2.3503,2.3508,2.3514,2.3663,2.3634,2.3822,2.3703,2.3631,2.3693,2.3689,2.3835,2.3853,2.39,2.4093,2.4102,2.3972,2.3979,2.3985,2.3988,0,0,0,0,0,0,0,2.3253,2.3281,2.3558,2.3506,2.3513,2.3518,2.354,2.3669,2.3751,2.3637,2.3638,2.3663,2.3837,2.3888,2.3906,2.4106,2.3972,2.3983,2.399,2.3995,2.4432,2.4436,0,0,0,0,0,0,2.3232,2.3271,2.3552,2.3565,2.3378,2.3528,2.3553,2.3619,2.375,2.3766,2.3666,2.3662,2.3869,2.3891,2.3914,2.4097,2.3985,2.3996,2.4003,2.4428,2.4433,2.4438,0,0,0,0,0,0,2.3224,2.3257,2.3543,2.3418,2.3455,2.3539,2.3613,2.3625,2.3676,2.3771,2.3787,2.3702,2.3867,2.3896,2.404,2.4105,2.4002,2.4013,2.4423,2.443,2.4435,2.4464,0,0,0,0,0,0,2.3213,2.3254,2.331,2.3419,2.3461,2.3664,2.3617,2.3632,2.3696,2.3694,2.381,2.3825,2.3867,2.4022,2.4052,2.412,2.4022,2.4418,2.4426,2.4433,2.4458,2.4471,2.4482,0,0,0,0,0,2.3199,2.3311,2.3313,2.3346,2.3532,2.3667,2.3692,2.3735,2.3701,2.3759,2.3821,2.3822,2.4093,2.4036,2.4071,2.4143,2.4414,2.4424,2.4433,2.4452,2.4468,2.4481,0,0,0,0,0,0,2.3209,2.3326,2.3329,2.3479,2.3563,2.3669,2.3743,2.375,2.3847,2.3842,2.3893,2.3919,2.4062,2.4117,2.4052,2.4295,2.425,2.4267,2.4253,2.4269,2.428,2.4264,2.4033,0,0,0,0,0,2.3229,2.3326,2.3424,2.3547,2.3589,2.3659,2.3719,2.3745,2.3835,2.3871,2.3943,2.4033,2.4138,2.4207,2.4309,2.4466,2.4492,2.4533,2.4545,2.4554,2.4568,2.4657,2.4676,2.4469,2.4469,2.4469,0,0,2.327,2.3346,2.3405,2.3551,2.3619,2.3721,2.3689,2.3798,2.3875,2.3889,2.4028,2.4084,2.4188,2.4339,2.4409,2.439,2.4631,2.4567,2.4573,2.4583,2.4668,2.4688,2.4705,2.4476,2.4475,2.4474,0,0,2.3397,2.3464,2.3574,2.3643,2.3746,2.3792,2.3818,2.3924,2.396,2.4101,2.4113,2.4207,2.4388,2.4461,2.4522,2.4678,2.4684,2.4711,2.4773,2.4858,2.4875,2.4889,2.4945,2.4965,2.4724,2.4725,2.4725,0,2.3436,2.3588,2.363,2.3739,2.3804,2.3819,2.3932,2.3998,2.413,2.4175,2.4151,2.4377,2.4448,2.4617,2.4655,2.4704,2.4737,2.4697,2.4868,2.4884,2.4898,2.4952,2.4973,2.4727,2.4727,2.4727,2.4726,0,2.3632,2.3737,2.3814,2.3938,2.4012,2.4122,2.4183,2.4253,2.4273,2.4322,2.4466,2.4552,2.4672,2.4714,2.4736,2.4887,2.4871,2.4857,2.4813,2.492,2.4971,2.4992,2.4731,2.473,2.4729,2.4728,0,0,2.377,2.3916,2.3943,2.4,2.4116,2.4199,2.4312,2.4427,2.4486,2.4578,2.4674,2.4827,2.4814,2.4884,2.4914,2.4989,2.5108,2.4966,2.4969,2.4989,2.528,2.529,2.5313,2.5112,2.5116,2.512,2.5272,0,2.391,2.4106,2.4148,2.4319,2.4418,2.4435,2.4533,2.4616,2.4666,2.4759,2.4815,2.4922,2.4897,2.4939,2.5014,2.5077,2.5167,2.5067,2.5204,2.5209,2.5177,2.534,2.535,2.5489,2.5292,2.5296,2.5298,0,2.4098,2.4192,2.4372,2.4474,2.4518,2.4605,2.4714,2.4802,2.4898,2.4929,2.5006,2.5028,2.5148,2.5099,2.5266,2.5197,2.5256,2.5296,2.5303,2.5317,2.5259,2.5358,2.5535,2.5555,2.5331,2.5328,2.5326,0,2.4181,2.4352,2.4482,2.453,2.4654,2.4714,2.4769,2.486,2.4927,2.5024,2.5068,2.5179,2.5239,2.5325,2.5378,2.5337,2.5542,2.5496,2.5572,2.5571,2.5614,2.5611,2.5802,2.5653,2.5653,2.5652,2.5652,0,2.4332,2.4442,2.452,2.46,2.4725,2.4773,2.4896,2.495,2.5032,2.5125,2.5147,2.5235,2.5299,2.5396,2.5439,2.5571,2.5599,2.5628,2.5638,2.5626,2.5622,2.5665,2.5657,2.5658,2.5657,2.5655,2.5654,0,2.4444,2.4501,2.4644,2.4749,2.4778,2.4865,2.4956,2.5036,2.5086,2.5203,2.5234,2.5313,2.5429,2.549,2.5635,2.5664,2.5812,2.5817,2.5779,2.5783,2.5856,2.5848,2.6081,2.6115,2.5943,2.5945,2.5946,0,2.4537,2.4621,2.4734,2.4797,2.4852,2.4953,2.5021,2.5073,2.5143,2.5258,2.5325,2.5441,2.5536,2.572,2.5793,2.5905,2.5912,2.5986,2.5929,2.5914,2.5914,2.5908,2.5917,2.5996,2.5998,2.5999,2.6,0,2.4694,2.4719,2.4814,2.492,2.5,2.5087,2.5172,2.5223,2.5289,2.5368,2.5485,2.5559,2.5706,2.5822,2.5939,2.5998,2.6012,2.6017,2.6041,2.6029,2.6004,2.6018,2.5806,2.6012,2.6011,2.601,2.6009,2.6009,2.48,2.4876,2.4967,2.5073,2.5143,2.5223,2.5303,2.5362,2.546,2.5582,2.5608,2.5732,2.5827,2.5985,2.6048,2.6148,2.6133,2.6167,2.6176,2.6183,2.6186,2.5988,2.617,2.617,2.6169,2.6169,2.6169,0,2.4958,2.5018,2.5115,2.5233,2.5318,2.532,2.5416,2.5487,2.5595,2.5681,2.5774,2.591,2.6022,2.6104,2.6219,2.6284,2.6293,2.6312,2.6308,2.6322,2.6193,2.6161,2.6303,2.6303,2.6303,2.6303,2.6303,2.6303,2.5051,2.5179,2.5215,2.5379,2.5439,2.5559,2.5613,2.5688,2.5757,2.5906,2.5999,2.6051,2.6136,2.6258,2.6363,2.6384,2.6426,2.6445,2.6467,2.6345,2.6331,2.6317,2.6287,2.6454,2.6454,2.6588,2.6589,2.659]},{"header":{"parameterUnit":"m.s-1","parameterCategory":1,"la1":30.2991,"la2":30.254,"lo1":-89.0895,"lo2":-89.0444,"dy":0.0017,"dx":0.0017,"nx":28,"ny":28,"refTime":"2025-06-09T21:00:00:Z","depth":0,"parameterNumber":3,"parameterNumberName":"V-component_of_WINDS"},"data":[0,0,0,0,0,0,0,0,0,0,0,0,0,0,0,0,0,0,0,0,0,0,0,0,0,0,0,0,0,0,0,0,0,0,0,0,0,0,0,0,0,0,0,0,0,0,0,0,0,0,0,0,0,0,0,0,0,0,3.206,3.2063,0,3.2331,3.2334,3.2337,3.2381,3.2378,3.2376,3.2374,3.2648,3.2657,3.2666,0,0,0,0,0,0,0,0,0,0,0,0,0,3.1576,3.1585,3.206,3.2063,3.2067,3.233,3.2334,3.2338,3.2381,3.2378,3.2375,3.2372,3.2644,3.2656,3.2667,0,0,0,0,0,0,0,0,0,0,0,0,0,3.181,3.1587,3.2059,3.212,3.2128,3.233,3.2334,3.2339,3.2382,3.2378,3.2374,3.2371,3.2641,3.2654,3.2669,3.2827,0,0,3.2712,3.2718,0,0,0,0,0,0,0,0,3.1797,3.1828,3.2108,3.2116,3.2126,3.2318,3.2264,3.2502,3.2382,3.2285,3.2373,3.2369,3.2541,3.2563,3.2621,3.284,3.2852,3.2713,3.2722,3.2728,3.2732,0,0,0,0,0,0,0,3.1781,3.1817,3.2167,3.2112,3.2123,3.2132,3.2162,3.2309,3.2429,3.2293,3.2297,3.2329,3.2545,3.2607,3.2628,3.2856,3.2713,3.2726,3.2734,3.274,3.3216,3.322,0,0,0,0,0,0,3.1754,3.1803,3.2158,3.2175,3.1949,3.2144,3.2177,3.226,3.2428,3.245,3.2332,3.233,3.2585,3.2611,3.2638,3.2834,3.2728,3.2741,3.2749,3.3212,3.3217,3.3221,0,0,0,0,0,0,3.1743,3.1785,3.2148,3.199,3.2037,3.2156,3.2249,3.2267,3.233,3.2457,3.2478,3.2374,3.2583,3.2618,3.278,3.2844,3.2748,3.2761,3.3207,3.3214,3.3219,3.3228,0,0,0,0,0,0,3.1729,3.1781,3.1844,3.1991,3.2045,3.2287,3.2253,3.2275,3.2355,3.2355,3.2502,3.2523,3.2583,3.2758,3.2794,3.2862,3.2772,3.3202,3.321,3.3217,3.3223,3.3234,3.3244,0,0,0,0,0,3.1712,3.1836,3.1847,3.189,3.2127,3.229,3.2321,3.2388,3.236,3.2423,3.2504,3.2518,3.2831,3.2774,3.2815,3.2889,3.3198,3.3208,3.3217,3.3218,3.3232,3.3243,0,0,0,0,0,0,3.1693,3.1856,3.1871,3.2046,3.2154,3.2297,3.238,3.2401,3.2519,3.2514,3.2591,3.2624,3.2782,3.2851,3.2785,3.305,3.3012,3.303,3.2999,3.3013,3.3024,3.3004,3.2784,0,0,0,0,0,3.1709,3.1829,3.1965,3.2106,3.216,3.226,3.2334,3.2376,3.2491,3.2536,3.2629,3.2739,3.2861,3.2941,3.3061,3.3232,3.3264,3.3302,3.3313,3.3321,3.3336,3.343,3.3448,3.3252,3.3252,3.3252,0,0,3.1743,3.1847,3.1919,3.2105,3.2194,3.2315,3.2298,3.2428,3.2519,3.2556,3.2715,3.2786,3.2913,3.308,3.3158,3.3143,3.3396,3.3332,3.3338,3.3349,3.3441,3.346,3.3476,3.3258,3.3257,3.3256,0,0,3.1869,3.196,3.2088,3.2177,3.2311,3.2377,3.2406,3.2547,3.2596,3.2757,3.2787,3.2894,3.3104,3.3193,3.3266,3.3422,3.3439,3.3459,3.3514,3.3605,3.362,3.3634,3.369,3.3709,3.3473,3.3473,3.3473,0,3.1895,3.2081,3.215,3.2279,3.2359,3.2398,3.2527,3.2609,3.2775,3.2829,3.2809,3.3073,3.3161,3.3349,3.3387,3.3444,3.348,3.3443,3.3613,3.3628,3.3642,3.3696,3.3716,3.3474,3.3474,3.3474,3.3474,0,3.2106,3.2234,3.2321,3.2481,3.2571,3.2699,3.2786,3.2868,3.2901,3.2968,3.3129,3.3236,3.3378,3.3425,3.3459,3.3618,3.3604,3.3597,3.3561,3.3661,3.3713,3.3734,3.3476,3.3476,3.3475,3.3475,0,0,3.2231,3.2425,3.2456,3.2529,3.2678,3.2778,3.2906,3.3046,3.3114,3.3226,3.3335,3.3511,3.3506,3.3588,3.3631,3.3711,3.3827,3.3695,3.3699,3.3716,3.4007,3.4012,3.4035,3.3838,3.3843,3.3846,3.3997,0,3.2374,3.2607,3.2671,3.2867,3.2985,3.3022,3.3133,3.3236,3.3301,3.341,3.3481,3.3604,3.3588,3.3637,3.3718,3.3796,3.3887,3.3786,3.394,3.3945,3.3909,3.4063,3.4069,3.4206,3.4018,3.4021,3.4024,0,3.2574,3.2691,3.2898,3.3031,3.3083,3.3183,3.3315,3.3418,3.3535,3.3576,3.3667,3.3703,3.3836,3.3791,3.3975,3.3904,3.397,3.4018,3.4025,3.4043,3.3991,3.4086,3.4252,3.4273,3.4056,3.4054,3.4051,0,3.2644,3.2852,3.3004,3.3064,3.3223,3.3292,3.3361,3.3474,3.3553,3.3667,3.3719,3.3847,3.3917,3.4014,3.4083,3.4044,3.426,3.4221,3.4298,3.4296,3.4344,3.434,3.4524,3.4384,3.4384,3.4383,3.4383,0,3.2799,3.2924,3.3037,3.313,3.3271,3.3342,3.348,3.355,3.3649,3.3755,3.3794,3.3892,3.3976,3.4085,3.4139,3.4283,3.4314,3.435,3.4363,3.4348,3.4343,3.4394,3.4386,3.4389,3.4387,3.4386,3.4385,0,3.2902,3.2983,3.315,3.3286,3.3323,3.3421,3.3537,3.3627,3.3692,3.3825,3.3861,3.3963,3.4093,3.417,3.4334,3.437,3.4529,3.4538,3.4491,3.4497,3.457,3.4562,3.4794,3.4827,3.4663,3.4665,3.4666,0,3.2996,3.3094,3.324,3.3314,3.3385,3.3503,3.3584,3.3657,3.3739,3.3877,3.3951,3.4083,3.4194,3.4399,3.4487,3.4612,3.4624,3.4697,3.4644,3.4624,3.4626,3.462,3.463,3.4706,3.4708,3.4709,3.471,0,3.3155,3.319,3.3305,3.3435,3.353,3.3635,3.3739,3.3797,3.3887,3.3977,3.4111,3.4196,3.4363,3.4494,3.4626,3.4696,3.4718,3.4725,3.475,3.4736,3.4705,3.4723,3.4517,3.472,3.4719,3.4718,3.4718,3.4717,3.3258,3.3346,3.3462,3.3589,3.3675,3.3771,3.3863,3.3939,3.4053,3.4195,3.423,3.4371,3.4482,3.4662,3.4734,3.4843,3.4832,3.4867,3.4876,3.4884,3.4887,3.4686,3.4867,3.4867,3.4867,3.4867,3.4867,0,3.3419,3.3495,3.3611,3.3756,3.3856,3.3867,3.3983,3.4065,3.4188,3.4291,3.4398,3.4551,3.4677,3.4773,3.4902,3.4971,3.4985,3.5003,3.4999,3.5015,3.4889,3.4856,3.499,3.499,3.499,3.499,3.499,3.499,3.3515,3.3665,3.3712,3.3904,3.3979,3.4118,3.4183,3.4271,3.4353,3.4522,3.4628,3.469,3.479,3.4926,3.5041,3.5066,3.5112,3.5129,3.5156,3.5037,3.5024,3.5011,3.498,3.5138,3.5138,3.5272,3.5274,3.5275]}]]